Location: Northcutt
(34.7304°N, 84.4305°W)
Time: 11:51:58
(UTC+00:00)

A-11 Canister half - Pass Details

Date: 12 October 2022
Orbit: 1525 x 1683 km, 47.3° (Epoch: 08 December)

Event Time Altitude Azimuth Distance (km) Brightness Sun altitude
Rises 15:44:06 0° 193° (SSW) 4,740 12.0 41.6°
Reaches altitude 10° 15:47:47 10° 182° (S) 3,736 11.8 42.0°
Maximum altitude 15:55:18 28° 128° (SE) 2,581 11.7 42.8°
Drops below altitude 10° 16:02:43 10° 74° (ENE) 3,692 11.2 43.5°
Sets 16:06:17 0° 63° (ENE) 4,675 11.6 43.9°
